Location: Observatorio Ernesto Juarez Davis
(29.2175°N, 110.7606°W)
Time: 04:35:13
(UTC-07:00)

N. Korean satellite - Visible Passes

Search period start: 21 September 2018 00:00
Search period end: 01 October 2018 00:00
Orbit: 458 x 511 km, 97.2° (Epoch: 20 September)

Date Brightness Start Highest point End Pass type
(mag) Time Alt. Az. Time Alt. Az. Time Alt. Az.
21 Sep 10.0 19:03:52 10° SW 19:05:37 13° W 19:07:23 10° WNW visible
22 Sep 8.9 18:38:07 10° SSW 18:41:10 30° W 18:44:18 10° NW visible
24 Sep 10.1 05:47:33 10° ENE 05:49:41 15° E 05:51:49 10° SE visible
25 Sep 9.9 18:59:33 10° SW 19:01:39 15° W 19:03:48 10° WNW visible
26 Sep 8.6 18:34:02 10° SSW 18:37:13 34° W 18:40:29 10° NNW visible
28 Sep 10.3 05:43:58 10° ENE 05:45:45 13° E 05:47:30 10° ESE visible
29 Sep 9.8 18:55:15 10° SW 18:57:40 17° W 19:00:07 10° NW visible
30 Sep 8.3 18:29:55 10° S 18:33:14 39° W 18:36:37 10° NNW visible
